Back to catalog

STARLINK-37378

AliveCommunicationsVLEO
NORAD 69255·PAYLOAD·🇺🇸 United States

Launched May 30, 2026 from Cape Canaveral Space Force Station

Loading…

Next Passes (next 24 hours)

TLE

FreshSource: CelesTrak SupGP

Epoch: Sep 15, 2026, 03:34 UTC

1 69255C 26117T   26258.14909722 -.00047702  00000+0 -14096-2 0  2582
2 69255  53.1581 178.4473 0001287  84.1106 132.8457 15.34408592    16

Track STARLINK-37378 in real time with AllMySat

Download on the App Store